CZ-2D DEB (45805 NORAD) Tracking and Keplerian Element Data

This shows tracking and keplerian element data for the satellite.

Feedback or suggestion? Click here.




ElementValue
Catalog45805
NameCZ-2D DEB
Epoch Orbit100
Epoch Day180.90035798
Epoch Year2020
RAAN326.3813
Inclination97.4125
Eccentricity0.0047244
Argument of Perigee202.7839
Mean Anonmoly157.1307
Mean Motion15.31597882
Decay Rate2.351E-05
L11 45805U 20034D 20180.90035798 .00002351 00000-0 77091-4 0 9992
L22 45805 97.4125 326.3813 0047244 202.7839 157.1307 15.31597882 1004



Live tracking and technical data element details for CZ-2D DEB (NORAD 45805). CZ-2D DEB can be tracked NOW for your location showing map with azimuth and elevation plus other details from your city location.







IsCatalogInMostPopularTable: catalog: 45805, numindb: 152
Update: records affected: 1



GetName: 45805 CZ-2D DEB

Hit Count: updated at: Sun, 28 May 2023 05:25:13 GMT